Date String (YYYY-MM-DD hh:mm:ss) UTC,Instrument flags,absolute air pressure of the measurement (hPa),sample flow rate (lpm),inlet stack bypass flow (lpm),air temperature of the measurement (°C),ambient temperature measured by the external sensor (°C),aerosol sample conditioner tube jacket temperature (°C),OPC LED temperature (°C),internal box temperature (°C),relative humidity of the measurement (%),span deviation,mass concentration of particles derived from Lorenz-Mie calculation of OPC scattering (μg/m³),mass concentration of particles derived from Lorenz-Mie calculation of OPC scattering (μg/m³),mass concentration of particles derived from Lorenz-Mie calculation of OPC scattering (μg/m³)
DateTimeUTC,F1_M11,P_M11,Q1_M11,Q2_M11,T1_M11,T2_M11,T3_M11,T4_M11,T5_M11,U1_M11,ZSPAN_M11,X2_M11,X0_M11,X1_M11
2023-12-17 04:00:00,SystemResetWarning,0830.9,4.99,000.00,024.9,023.6,000.0,033.3,026.2,7.8,0000.0,0000.28,0000.40,0000.22
2023-12-17 04:01:00,SystemResetWarning,0830.8,5.02,000.00,024.9,023.6,000.0,033.3,026.2,7.9,0000.0,0000.28,0000.37,0000.23
2023-12-17 04:02:00,SystemResetWarning,0830.8,4.99,000.00,024.9,023.6,000.0,033.3,026.2,7.7,0000.0,0000.28,0000.42,0000.23
2023-12-17 04:03:00,SystemResetWarning,0830.8,5.00,000.00,024.9,023.6,000.0,033.3,026.1,7.8,0000.0,0000.28,0000.54,0000.23
2023-12-17 04:04:00,SystemResetWarning,0830.8,4.99,000.00,024.9,023.6,000.0,033.3,026.1,7.7,0000.0,0000.28,0000.54,0000.23
2023-12-17 04:05:00,SystemResetWarning,0830.8,5.01,000.00,024.9,023.6,000.0,033.3,026.1,7.5,0000.0,0000.28,0000.53,0000.22
2023-12-17 04:06:00,SystemResetWarning,0830.8,5.01,000.00,024.9,023.6,000.0,033.3,026.1,7.4,0000.0,0000.28,0000.53,0000.22
2023-12-17 04:07:00,SystemResetWarning,0830.7,5.00,000.00,024.9,023.6,000.0,033.2,026.1,7.6,0000.0,0000.28,0000.53,0000.22
2023-12-17 04:08:00,SystemResetWarning,0830.8,4.99,000.00,024.8,023.6,000.0,033.2,026.1,7.4,0000.0,0000.26,0000.49,0000.22
2023-12-17 04:09:00,SystemResetWarning,0830.7,4.99,000.00,024.8,023.6,000.0,033.2,026.1,7.6,0000.0,0000.25,0000.48,0000.21
2023-12-17 04:10:00,SystemResetWarning,0830.7,5.01,000.00,024.8,023.6,000.0,033.2,026.1,7.3,0000.0,0000.26,0000.49,0000.22
2023-12-17 04:11:00,SystemResetWarning,0830.8,5.01,000.00,024.8,023.5,000.0,033.2,026.1,7.4,0000.0,0000.27,0000.51,0000.22
2023-12-17 04:12:00,SystemResetWarning,0830.8,5.00,000.00,024.8,023.5,000.0,033.2,026.1,7.5,0000.0,0000.27,0000.52,0000.21
2023-12-17 04:13:00,SystemResetWarning,0830.8,5.00,000.00,024.8,023.5,000.0,033.2,026.1,7.7,0000.0,0000.25,0000.47,0000.21
2023-12-17 04:14:00,SystemResetWarning,0830.8,5.01,000.00,024.8,023.5,000.0,033.2,026.1,7.7,0000.0,0000.24,0000.32,0000.21
2023-12-17 04:15:00,SystemResetWarning,0830.8,5.00,000.00,024.8,023.6,000.0,033.2,026.1,7.8,0000.0,0000.25,0000.35,0000.21
2023-12-17 04:16:00,SystemResetWarning,0830.7,4.99,000.00,024.8,023.6,000.0,033.2,026.1,7.8,0000.0,0000.28,0000.44,0000.21
2023-12-17 04:17:00,SystemResetWarning,0830.8,4.99,000.00,024.8,023.6,000.0,033.1,026.1,7.8,0000.0,0000.30,0000.49,0000.22
2023-12-17 04:18:00,SystemResetWarning,0830.8,4.99,000.00,024.8,023.6,000.0,033.1,026.1,7.9,0000.0,0000.31,0000.51,0000.22
2023-12-17 04:19:00,SystemResetWarning,0830.8,5.01,000.00,024.8,023.6,000.0,033.1,026.1,7.9,0000.0,0000.31,0000.51,0000.23
2023-12-17 04:20:00,SystemResetWarning,0830.8,5.00,000.00,024.8,023.6,000.0,033.1,026.1,7.7,0000.0,0000.32,0000.52,0000.23
2023-12-17 04:21:00,SystemResetWarning,0830.9,5.00,000.00,024.8,023.6,000.0,033.1,026.1,7.7,0000.0,0000.32,0000.53,0000.22
2023-12-17 04:22:00,SystemResetWarning,0830.9,5.01,000.00,024.8,023.6,000.0,033.1,026.1,7.7,0000.0,0000.32,0000.54,0000.22
2023-12-17 04:23:00,SystemResetWarning,0830.9,5.00,000.00,024.8,023.6,000.0,033.1,026.1,7.7,0000.0,0000.31,0000.52,0000.23
2023-12-17 04:24:00,SystemResetWarning,0830.9,4.98,000.00,024.8,023.6,000.0,033.1,026.1,7.6,0000.0,0000.33,0000.58,0000.23
2023-12-17 04:25:00,SystemResetWarning,0830.9,5.00,000.00,024.8,023.6,000.0,033.1,026.1,7.5,0000.0,0000.34,0000.60,0000.23
2023-12-17 04:26:00,SystemResetWarning,0830.9,5.01,000.00,024.8,023.6,000.0,033.1,026.1,7.6,0000.0,0000.34,0000.60,0000.23
2023-12-17 04:27:00,SystemResetWarning,0830.9,5.01,000.00,024.8,023.7,000.0,033.1,026.2,7.5,0000.0,0000.31,0000.52,0000.22
2023-12-17 04:28:00,SystemResetWarning,0830.9,5.00,000.00,024.8,023.7,000.0,033.1,026.2,7.6,0000.0,0000.30,0000.53,0000.22
2023-12-17 04:29:00,SystemResetWarning,0830.8,4.99,000.00,024.8,023.7,000.0,033.1,026.1,7.6,0000.0,0000.29,0000.57,0000.22
2023-12-17 04:30:00,SystemResetWarning,0830.8,5.00,000.00,024.8,023.7,000.0,033.1,026.1,7.5,0000.0,0000.30,0000.58,0000.22
2023-12-17 04:31:00,SystemResetWarning,0830.8,5.01,000.00,024.8,023.6,000.0,033.1,026.1,7.5,0000.0,0000.31,0000.61,0000.22
2023-12-17 04:32:00,SystemResetWarning,0830.7,5.00,000.00,024.8,023.6,000.0,033.1,026.1,7.6,0000.0,0000.30,0000.59,0000.21
2023-12-17 04:33:00,SystemResetWarning,0830.7,4.98,000.00,024.8,023.6,000.0,033.1,026.1,7.5,0000.0,0000.29,0000.55,0000.21
2023-12-17 04:34:00,SystemResetWarning,0830.7,5.00,000.00,024.7,023.5,000.0,033.1,026.0,7.4,0000.0,0000.29,0000.55,0000.21
2023-12-17 04:35:00,SystemResetWarning,0830.7,5.01,000.00,024.7,023.5,000.0,033.1,026.0,7.6,0000.0,0000.28,0000.50,0000.20
2023-12-17 04:36:00,SystemResetWarning,0830.7,4.98,000.00,024.7,023.5,000.0,033.1,026.0,7.5,0000.0,0000.27,0000.48,0000.20
2023-12-17 04:37:00,SystemResetWarning,0830.7,4.99,000.00,024.7,023.5,000.0,033.0,025.9,7.5,0000.0,0000.27,0000.46,0000.21
2023-12-17 04:38:00,SystemResetWarning,0830.6,5.01,000.00,024.7,023.5,000.0,033.0,026.0,7.3,0000.0,0000.27,0000.46,0000.21
2023-12-17 04:39:00,SystemResetWarning,0830.6,5.01,000.00,024.7,023.5,000.0,033.0,026.0,7.4,0000.0,0000.26,0000.41,0000.20
2023-12-17 04:40:00,SystemResetWarning,0830.6,5.00,000.00,024.7,023.5,000.0,033.0,026.0,7.6,0000.0,0000.26,0000.34,0000.21
2023-12-17 04:41:00,SystemResetWarning,0830.6,5.00,000.00,024.7,023.5,000.0,033.0,025.9,7.7,0000.0,0000.25,0000.33,0000.20
2023-12-17 04:42:00,SystemResetWarning,0830.6,5.00,000.00,024.6,023.5,000.0,033.0,026.0,7.6,0000.0,0000.24,0000.30,0000.21
2023-12-17 04:43:00,SystemResetWarning,0830.5,5.00,000.00,024.6,023.4,000.0,033.0,025.9,7.6,0000.0,0000.24,0000.30,0000.21
2023-12-17 04:44:00,SystemResetWarning,0830.6,5.00,000.00,024.6,023.4,000.0,033.0,025.9,7.5,0000.0,0000.25,0000.31,0000.22
2023-12-17 04:45:00,SystemResetWarning,0830.5,5.00,000.00,024.6,023.4,000.0,033.0,025.9,7.7,0000.0,0000.26,0000.33,0000.22
2023-12-17 04:46:00,SystemResetWarning,0830.5,5.00,000.00,024.6,023.3,000.0,033.0,025.8,7.6,0000.0,0000.26,0000.35,0000.21
2023-12-17 04:47:00,SystemResetWarning,0830.7,5.00,000.00,024.6,023.3,000.0,033.0,025.8,7.6,0000.0,0000.27,0000.38,0000.21
2023-12-17 04:48:00,SystemResetWarning,0830.5,5.00,000.00,024.6,023.3,000.0,033.0,025.7,7.6,0000.0,0000.28,0000.97,0000.21
2023-12-17 04:49:00,SystemResetWarning,0830.5,5.00,000.00,024.5,023.3,000.0,033.0,025.7,7.8,0000.0,0000.28,0001.11,0000.22
2023-12-17 04:50:00,SystemResetWarning,0830.7,5.00,000.00,024.5,023.3,000.0,032.9,025.7,7.9,0000.0,0000.29,0001.11,0000.22
2023-12-17 04:51:00,SystemResetWarning,0830.5,5.01,000.00,024.5,023.2,000.0,032.9,025.7,7.8,0000.0,0000.28,0001.11,0000.22
2023-12-17 04:52:00,SystemResetWarning,0830.4,5.00,000.00,024.5,023.2,000.0,032.9,025.7,7.8,0000.0,0000.29,0001.11,0000.22
2023-12-17 04:53:00,SystemResetWarning,0830.4,5.00,000.00,024.5,023.3,000.0,032.9,025.7,7.8,0000.0,0000.29,0001.12,0000.23
2023-12-17 04:54:00,SystemResetWarning,0830.6,4.99,000.00,024.5,023.2,000.0,032.9,025.7,7.7,0000.0,0000.29,0001.11,0000.23
2023-12-17 04:55:00,SystemResetWarning,0830.4,5.00,000.00,024.5,023.2,000.0,032.9,025.6,7.9,0000.0,0000.30,0001.12,0000.23
2023-12-17 04:56:00,SystemResetWarning,0830.6,5.00,000.00,024.5,023.2,000.0,032.9,025.6,7.8,0000.0,0000.30,0001.14,0000.23
2023-12-17 04:57:00,SystemResetWarning,0830.5,4.99,000.00,024.5,023.2,000.0,032.9,025.7,7.8,0000.0,0000.28,0001.10,0000.23
2023-12-17 04:58:00,SystemResetWarning,0830.6,5.00,000.00,024.4,023.2,000.0,032.9,025.7,7.7,0000.0,0000.28,0001.09,0000.24
2023-12-17 04:59:00,SystemResetWarning,0830.6,5.01,000.00,024.4,023.2,000.0,032.8,025.6,7.6,0000.0,0000.27,0000.52,0000.24
